This is the latest recevied weather packets stored in our database for station/object KO4LCK. If no packets are shown the sender has not sent any weather packets the latest 10 day(s).
| Time | Temp. | Humidity | Pressure | Rain* | Wind** | Luminosity | Snow |
|---|---|---|---|---|---|---|---|
| 1777388174 | 15° C | 95% | 1022.2 hPa | 0 mm | - | 101 W/m² | - |
| 1777387870 | 15° C | 95% | 1023 hPa | 0 mm | - | 77 W/m² | - |
| 1777387567 | 15° C | 95% | 1023.4 hPa | 0 mm | - | 106 W/m² | - |
| 1777387262 | 15° C | 95% | 1023.2 hPa | 0 mm | - | 92 W/m² | - |
| 1777386957 | 15° C | 95% | 1023.1 hPa | 0 mm | - | 72 W/m² | - |
| 1777386655 | 15° C | 95% | 1023.1 hPa | 0 mm | - | 134 W/m² | - |
| 1777386352 | 15° C | 95% | 1023.1 hPa | 1.78 mm | - | 187 W/m² | - |
| 1777386049 | 15° C | 95% | 1023.4 hPa | 1.78 mm | - | 119 W/m² | - |
| 1777385745 | 15° C | 95% | 1023.5 hPa | 1.27 mm | - | 157 W/m² | - |
| 1777385443 | 14.44° C | 95% | 1024.2 hPa | 0 mm | - | 42 W/m² | - |
| 1777385138 | 15° C | 95% | 1024.4 hPa | 0 mm | - | 22 W/m² | - |
| 1777384835 | 14.44° C | 95% | 1024.1 hPa | 0 mm | - | 23 W/m² | - |
| 1777384532 | 14.44° C | 95% | 1023.9 hPa | 0 mm | - | 46 W/m² | - |
| 1777384227 | 14.44° C | 95% | 1023.7 hPa | 0 mm | - | 45 W/m² | - |
| 1777383923 | 14.44° C | 95% | 1023.6 hPa | 3.05 mm | - | 52 W/m² | - |
| 1777383619 | 14.44° C | 95% | 1023.7 hPa | 4.83 mm | - | 47 W/m² | - |
| 1777383315 | 14.44° C | 95% | 1023.3 hPa | 4.83 mm | - | 39 W/m² | - |
| 1777383012 | 14.44° C | 95% | 1023.7 hPa | 8.89 mm | - | 24 W/m² | - |
| 1777382709 | 14.44° C | 95% | 1024.1 hPa | 9.65 mm | - | 19 W/m² | - |
| 1777382404 | 14.44° C | 95% | 1024.7 hPa | 13.72 mm | - | 16 W/m² | - |
| 1777382100 | 14.44° C | 95% | 1024.7 hPa | 24.64 mm | - | 15 W/m² | - |
| 1777381791 | 15° C | 95% | 1025.1 hPa | 26.42 mm | - | 11 W/m² | - |
| 1777381490 | 15° C | 95% | 1025.7 hPa | 8.89 mm | - | 11 W/m² | - |
| 1777381187 | 15° C | 94% | 1025.1 hPa | 4.32 mm | - | 4 W/m² | - |
| 1777380884 | 15° C | 94% | 1024.6 hPa | 4.32 mm | - | 8 W/m² | - |
* Rain latest hour (hover to see other rain measurements)
** Current wind speed in m/s (hover to see current wind gust speed)